This is the latest recevied weather packets stored in our database for station/object OK1VCF-8. If no packets are shown the sender has not sent any weather packets the latest 10 day(s).
| Time | Temp. | Humidity | Pressure | Rain* | Wind** | Luminosity | Snow |
|---|---|---|---|---|---|---|---|
| 1777775018 | 10° C | 68% | 1018.2 hPa | - | - | - | - |
| 1777774580 | 10° C | 61% | 1018.2 hPa | - | - | - | - |
| 1777774142 | 10° C | 61% | 1018.1 hPa | - | - | - | - |
| 1777773705 | 10° C | 62% | 1018.3 hPa | - | - | - | - |
| 1777773267 | 10° C | 62% | 1018.2 hPa | - | - | - | - |
| 1777772829 | 9.44° C | 65% | 1018.2 hPa | - | - | - | - |
| 1777772392 | 10° C | 62% | 1018.2 hPa | - | - | - | - |
| 1777771955 | 10° C | 60% | 1018.2 hPa | - | - | - | - |
| 1777771517 | 10° C | 60% | 1018.2 hPa | - | - | - | - |
| 1777771081 | 10.56° C | 59% | 1018.2 hPa | - | - | - | - |
| 1777770636 | 11.11° C | 56% | 1018.2 hPa | - | - | - | - |
| 1777770180 | 11.11° C | 57% | 1018.4 hPa | - | - | - | - |
| 1777769705 | 11.11° C | 56% | 1018.4 hPa | - | - | - | - |
| 1777769230 | 11.11° C | 56% | 1018.4 hPa | - | - | - | - |
| 1777768573 | 11.11° C | 57% | 1018.5 hPa | - | - | - | - |
| 1777768095 | 11.11° C | 56% | 1018.5 hPa | - | - | - | - |
| 1777767619 | 11.11° C | 56% | 1018.6 hPa | - | - | - | - |
| 1777767143 | 11.11° C | 56% | 1018.6 hPa | - | - | - | - |
| 1777766666 | 11.11° C | 56% | 1018.7 hPa | - | - | - | - |
| 1777766187 | 11.67° C | 56% | 1018.6 hPa | - | - | - | - |
| 1777765708 | 11.67° C | 56% | 1018.8 hPa | - | - | - | - |
| 1777765237 | 11.67° C | 56% | 1018.8 hPa | - | - | - | - |
| 1777764782 | 11.67° C | 56% | 1018.8 hPa | - | - | - | - |
| 1777764327 | 12.22° C | 56% | 1018.8 hPa | - | - | - | - |
| 1777763884 | 12.22° C | 56% | 1019 hPa | - | - | - | - |
* Rain since midnight (hover to see other rain measurements)
** Current wind speed in m/s (hover to see current wind gust speed)